CAPE
2 2 2 1 1 1 1 1 1 2 1 1 1 1 1 2 1 1 0 0 0 0 0 0 0 0 0 0 0 0 0 0 0 0 0 0 0 0 58 265 480 609 269 479 493 282 116
0 1 1 0 0 1 1 2 1 1 1 1 1 1 1 1 1 1 1 0 0 0 0 0 0 0 0 0 0 0 0 0 0 0 0 0 0 0 22 114 361 339 291 39 101 534 307
0 0 1 1 1 2 2 3 2 2 2 2 1 1 1 3 2 1 1 0 0 0 0 0 0 0 0 0 0 0 0 0 0 0 0 0 0 0 0 58 353 287 446 21 70 640 567
0 0 2 1 2 2 2 3 3 0 0 0 0 1 2 2 3 1 1 0 0 0 0 0 0 0 0 0 0 0 0 0 0 0 0 0 0 0 0 3 369 414 269 62 59 435 505
0 0 2 1 2 1 1 1 2 0 0 0 0 0 1 0 0 0 0 0 0 0 0 0 0 0 0 0 0 0 0 0 0 0 0 0 0 0 0 0 68 261 161 113 105 304 462
0 0 1 2 2 1 1 0 0 0 0 1 1 1 0 0 1 0 0 0 0 0 0 0 0 0 0 0 0 0 0 0 0 0 0 0 0 0 0 0 3 21 38 38 107 328 479
0 0 0 2 2 0 0 0 0 0 2 2 0 0 0 0 0 0 0 0 0 0 0 0 0 0 0 0 0 0 0 0 0 0 0 0 0 0 0 0 0 33 57 124 39 37 443
1 0 0 1 1 0 0 0 0 0 0 1 2 1 0 0 0 0 0 0 0 0 0 0 0 0 0 0 0 0 0 0 0 0 0 0 0 0 0 0 0 3 4 73 16 28 165
2 0 0 0 0 0 0 0 0 0 0 1 0 0 0 0 0 0 0 0 0 0 0 0 0 0 0 0 0 0 0 0 0 0 0 0 0 0 0 0 0 0 8 30 44 0 0
1 0 0 0 0 0 0 0 0 0 0 0 0 0 0 0 0 0 0 0 0 0 0 0 0 0 0 0 0 0 0 0 0 0 0 0 0 0 0 0 0 0 0 3 110 102 34
0 1 0 0 0 0 0 0 0 0 0 0 0 0 0 0 0 0 0 0 0 0 0 0 0 0 0 0 0 0 0 0 0 0 0 0 0 0 0 0 0 0 12 0 4 1 0
1 1 0 0 0 0 0 0 0 0 0 0 0 0 0 0 0 0 0 0 0 0 3 1 0 0 0 0 0 0 0 0 0 0 0 0 0 0 0 0 0 0 2 33 30 0 0
1 2 0 0 0 0 0 0 0 0 0 0 0 0 0 0 0 0 0 0 1 7 26 12 0 0 0 0 0 2 0 0 0 0 0 0 0 0 0 0 0 0 0 19 30 9 1
0 1 0 0 0 0 0 0 0 0 0 0 0 0 0 0 0 0 0 0 14 22 26 12 0 7 0 2 0 5 25 0 0 0 0 0 0 0 0 0 0 0 0 32 9 4 4
1 0 0 0 0 0 0 0 0 0 0 0 0 0 0 0 0 0 0 50 2 10 2 0 0 9 32 26 20 30 39 4 0 0 0 1 0 0 0 0 3 1 0 24 37 15 6
1 1 0 0 0 0 0 0 0 0 0 0 0 0 0 1 0 0 17 0 0 21 0 0 2 8 8 7 0 44 69 40 28 8 23 15 0 2 9 33 42 9 0 0 0 0 13
1 2 1 0 0 0 0 0 0 0 0 0 0 0 5 0 0 7 0 0 38 0 0 1 0 25 0 0 33 95 0 27 7 2 3 19 26 35 18 0 3 0 0 0 0 0 4
2 2 1 0 0 0 0 0 0 0 0 0 0 5 0 0 0 43 100 16 0 0 0 0 0 0 19 1 0 1 0 0 0 0 0 8 86 8 0 0 0 0 0 0 0 0 0
2 1 0 0 0 0 0 0 0 0 0 0 0 0 0 0 21 0 2 0 0 0 6 3 0 0 0 11 19 1 0 0 0 0 0 3 22 2 2 0 0 0 0 0 2 0 7
1 1 0 0 0 0 0 0 0 0 0 0 0 0 8 0 5 27 56 97 40 0 0 0 0 0 0 0 0 0 0 0 0 0 0 0 0 4 0 0 0 0 0 0 0 0 13
1 2 0 0 0 0 0 0 0 0 0 0 0 0 0 2 0 0 0 2 3 13 0 0 11 0 0 0 4 0 0 0 0 0 0 0 0 0 0 0 0 0 0 0 0 0 283
1 2 0 0 0 0 0 0 0 0 0 0 0 0 0 0 0 0 0 0 0 0 0 0 2 25 4 0 1 19 0 0 0 0 0 0 0 0 0 0 0 0 0 0 0 0 69
1 2 0 0 0 0 0 0 0 0 0 0 0 0 0 0 2 8 0 0 0 0 0 0 0 35 20 0 0 6 7 0 0 0 1 0 0 0 0 0 0 0 0 0 0 0 324
1 1 0 0 0 0 0 0 0 0 0 0 0 5 5 0 0 0 0 0 0 0 0 0 0 0 0 0 0 0 5 7 15 1 0 9 1 0 0 0 0 0 0 0 0 0 220
2 1 0 0 0 0 0 0 0 0 0 0 0 16 11 1 0 0 0 0 0 0 0 0 0 0 0 0 1 10 15 9 6 10 6 2 2 0 0 0 0 0 0 0 0 0 47
2 0 0 0 0 0 0 0 0 0 0 0 0 0 91 14 0 0 0 0 2 0 0 0 0 0 0 0 0 1 10 13 13 0 0 0 7 35 0 0 0 0 0 0 0 5 0
1 0 0 0 0 0 0 0 0 0 0 0 0 0 48 87 0 0 3 0 0 0 0 0 0 0 0 3 0 7 58 33 47 15 1 0 0 0 7 7 21 0 0 0 0 27 0
0 0 0 0 0 0 0 0 0 0 0 0 0 0 0 12 0 0 0 0 0 0 5 0 0 0 0 0 7 28 2 65 10 45 9 4 0 0 0 14 35 0 0 0 0 0 0
0 0 0 0 0 0 0 0 0 0 0 0 0 0 0 1 5 0 0 0 0 0 0 0 0 0 0 0 0 1 0 0 0 0 0 28 10 27 50 57 1 0 0 0 0 0 0
CIN
0 0 0 0 0 -1 0 0 0 0 0 -1 0 0 0 0 0 0 0 0 0 0 0 0 0 0 0 0 0 0 0 0 0 0 0 0 0 0 -8 -7 -18 -18 -7 -2 -17 -10 -27
0 0 0 0 0 0 0 0 0 0 -1 0 0 0 0 0 0 0 0 0 0 0 0 0 0 0 0 0 0 0 0 0 0 0 0 0 0 0 -6 -3 -8 -7 -8 -21 -36 -11 -5
0 0 0 0 0 0 0 0 0 0 0 0 0 0 0 0 0 0 0 0 0 0 0 0 0 0 0 0 0 0 0 0 0 0 0 0 0 0 -1 -13 -20 -16 -20 -16 -22 -6 -3
0 0 0 0 0 0 0 -1 0 0 0 0 0 0 0 0 0 0 0 0 0 0 0 0 0 0 0 0 0 0 0 0 0 0 0 0 0 0 0 -2 -6 -16 -5 -1 -9 -5 -12
0 0 0 0 0 -1 -1 0 0 0 0 0 0 0 0 0 0 0 0 0 0 0 0 0 0 0 0 0 0 0 0 0 0 0 0 0 0 0 0 0 -6 -4 -4 -8 -3 -8 -12
0 0 0 0 0 0 -1 0 0 0 0 0 0 0 0 0 0 0 0 0 0 0 0 0 0 0 0 0 0 0 0 0 0 0 0 0 0 0 0 0 -2 -14 -12 -29 -6 -5 -9
0 0 0 0 0 0 0 0 0 0 0 0 0 0 0 0 0 0 0 0 0 0 0 0 0 0 0 0 0 0 0 0 0 0 0 0 0 0 0 0 0 -4 -7 -22 -54 -64 -10
0 0 0 0 0 0 0 0 0 0 0 0 0 0 0 0 0 0 0 0 0 0 0 0 0 0 0 0 0 0 0 0 0 0 0 0 0 0 0 0 0 -20 -28 -3 -56 -82 -133
0 0 0 0 0 0 0 0 0 0 0 0 0 0 0 0 0 0 0 0 0 0 0 0 0 0 0 0 0 0 0 0 0 0 0 0 0 0 0 0 0 0 -6 -50 -45 -4 0
0 0 0 0 0 0 0 0 0 0 0 0 0 0 0 0 0 0 0 0 0 0 0 0 0 0 0 0 0 0 0 0 0 0 0 0 0 0 0 0 0 0 -2 -15 -8 -13 -62
0 0 0 0 0 0 0 0 0 0 0 0 0 0 0 0 0 0 0 0 0 0 0 0 0 0 0 0 0 0 0 0 0 0 0 0 0 0 0 0 0 0 -9 0 -4 -7 0
0 0 0 0 0 0 0 0 0 0 0 0 0 0 0 0 0 0 0 0 0 0 -2 -2 0 0 0 0 0 0 0 0 0 0 0 0 0 0 0 0 0 0 -10 -2 -4 -1 0
0 0 0 0 0 0 0 0 0 0 0 0 0 0 0 0 0 0 0 0 -1 -2 -67 -11 0 0 0 0 0 -4 -1 0 0 0 0 0 0 0 0 0 0 0 0 -5 -4 -4 -1
0 0 0 0 0 0 0 0 0 0 0 0 0 0 0 0 0 0 0 0 -7 -15 -90 -32 0 -9 0 -5 0 -7 -6 0 0 0 0 0 0 0 0 0 0 0 0 -4 -5 -4 -5
0 0 0 0 0 0 0 0 0 0 0 0 0 0 0 0 0 0 0 -5 -22 -47 -7 -3 -3 -23 -7 -21 -8 -16 -3 -5 0 0 -2 -1 0 -1 -1 0 -3 -1 0 -7 -6 -5 -6
0 0 0 0 0 0 0 0 0 0 0 0 0 0 0 -1 0 0 -52 0 0 -43 0 0 -66 -37 -36 -74 -21 -16 -8 -23 -29 -97 -41 -13 -2 -37 -1 -5 -6 -16 0 -2 0 -1 -11
0 0 0 0 0 0 0 0 0 0 0 0 0 0 -4 -3 0 -32 0 0 -51 0 0 -1 0 -78 -52 0 -38 -33 0 -41 -145 -25 -97 -28 -49 -29 -6 0 -4 0 0 0 0 0 -29
0 0 0 0 0 0 0 0 0 0 0 0 0 -14 -2 0 0 -21 -9 -96 0 -1 0 0 0 0 -36 -7 -73 -5 -1 0 0 0 0 -66 -31 -73 -1 0 0 0 0 0 0 0 -1
0 0 0 0 0 0 0 0 0 0 0 0 0 0 0 0 -7 0 -20 0 0 0 -2 -6 0 0 0 -104 -4 -2 0 0 0 0 0 -88 -45 -34 -11 0 0 0 0 0 -8 0 -22
0 0 0 0 0 0 0 0 0 0 0 0 0 0 -7 0 -3 -25 -16 -7 -25 0 0 0 0 0 0 -4 -14 0 0 0 0 0 0 0 0 -81 0 0 0 0 0 0 0 0 -3
0 0 0 0 0 0 0 0 0 0 0 0 0 0 0 -4 0 0 0 -11 -1 -4 0 0 -3 0 0 0 -5 -1 0 0 0 0 0 0 0 0 0 0 0 0 0 0 0 0 -24
0 0 0 0 0 0 0 0 0 0 0 0 0 0 0 0 0 0 0 0 0 0 0 0 -1 -5 -7 0 -2 -5 -5 -2 0 0 0 0 0 -2 0 0 0 0 0 0 0 0 -28
0 0 0 0 0 0 0 0 0 0 0 0 0 0 0 0 -1 -7 0 0 0 0 0 0 0 -8 -21 0 0 -47 -8 0 -20 0 -23 0 0 0 0 0 0 0 0 0 0 0 -28
0 0 0 0 0 0 0 0 0 0 0 0 0 -88 -15 0 0 0 0 0 0 0 0 0 0 0 0 0 0 0 -3 -4 -10 -1 0 -43 -62 0 0 0 0 0 0 0 0 0 -4
0 0 0 0 0 0 0 0 0 0 0 0 0 -153 -75 -1 0 0 0 0 0 0 0 0 0 0 0 0 -8 -9 -3 -18 -15 -14 -13 -4 -19 0 0 -1 0 0 0 0 0 0 -3
0 0 0 0 0 0 0 0 0 0 0 0 0 0 -82 -27 0 0 0 0 -5 0 0 0 0 0 0 0 -2 -1 -4 -3 -3 0 0 0 -15 -10 -1 0 0 0 0 0 0 -3 0
0 0 0 0 0 0 0 0 0 0 0 0 0 0 -94 -27 0 0 -1 0 0 0 0 0 0 0 0 -5 0 -9 -14 -56 -8 -2 -3 0 0 0 -8 -6 -12 -2 0 0 0 -15 0
0 0 0 0 0 0 0 0 0 0 0 0 0 0 0 -73 0 0 0 0 0 0 -5 0 0 0 0 0 -2 -10 -14 -45 -23 -23 -5 -1 0 0 0 -3 -4 0 0 0 0 0 0
0 0 0 0 0 0 0 0 0 0 0 0 0 0 0 -12 -52 0 0 0 0 0 0 0 0 0 0 0 0 -5 0 0 0 0 0 -14 -15 -5 -7 -16 -22 0 0 0 0 0 0
Wind_Speed
18 19 24 29 30 30 30 31 31 30 30 31 30 31 30 30 30 29 29 29 29 29 29 28 27 24 22 21 27 12 10 10 11 14 26 23 21 19 24 10 16 12 11 11 14 16 17
17 18 20 25 26 26 27 30 31 30 30 30 30 30 30 30 30 30 29 29 29 29 29 28 26 23 22 26 17 11 11 9 10 10 24 27 22 27 23 15 13 12 11 8 9 10 14
18 18 19 19 21 23 24 26 30 31 30 31 30 30 30 30 30 30 29 29 29 28 27 25 23 20 27 31 19 13 11 13 13 8 20 28 26 26 24 19 14 16 12 2 5 10 9
19 20 20 20 21 21 23 25 30 31 31 31 31 30 30 30 30 29 29 28 27 26 25 20 18 20 25 22 28 15 13 14 15 22 33 23 30 30 32 26 11 22 18 15 1 6 4
19 20 21 22 22 22 22 24 28 28 31 29 29 28 28 29 29 28 27 26 24 23 19 11 15 19 26 15 23 18 10 12 13 21 29 27 27 28 32 32 22 22 20 10 14 3 6
20 21 22 23 23 23 23 23 22 17 27 30 27 23 23 26 27 27 26 23 21 20 15 14 24 21 27 23 18 15 14 13 13 16 20 25 23 29 34 30 24 17 28 10 6 4 4
21 22 23 23 22 23 22 23 22 21 32 30 26 24 21 25 25 24 21 18 19 18 18 20 20 22 17 19 11 16 16 14 15 19 17 19 23 28 27 37 37 32 22 16 23 24 4
24 23 24 24 23 23 23 25 27 29 31 29 25 23 2 7 22 21 16 18 21 24 27 24 29 24 27 13 15 18 14 17 18 19 22 19 32 32 33 37 39 39 28 18 13 20 13
25 25 25 24 24 23 24 29 30 30 31 31 27 26 12 10 19 13 8 22 23 26 29 31 25 24 20 15 17 18 19 20 20 24 23 32 26 36 27 35 36 42 35 19 23 13 18
24 26 26 26 24 23 26 32 33 32 32 31 30 21 15 14 15 8 9 19 24 24 27 24 14 19 22 22 25 23 22 24 23 29 32 36 34 27 35 35 33 40 33 8 13 10 23
25 26 27 27 25 26 28 33 33 33 33 31 30 21 15 13 17 13 18 20 24 17 23 13 11 13 17 21 19 23 19 29 31 26 29 35 35 34 33 33 35 36 32 11 30 17 21
26 27 28 28 26 25 27 33 34 34 32 31 29 20 17 12 10 6 12 14 9 15 21 16 11 17 15 20 29 19 23 32 31 32 33 38 32 34 31 31 35 36 35 22 23 27 29
28 28 28 28 29 29 33 35 35 34 31 29 27 13 11 13 11 22 15 13 14 19 24 19 19 14 18 20 24 21 23 28 33 31 33 32 36 35 28 30 32 30 33 31 31 34 34
30 28 28 29 29 29 33 35 35 31 31 27 20 8 7 5 6 8 12 9 19 21 19 23 23 21 18 20 25 21 22 29 35 34 29 31 35 30 22 34 29 31 34 31 33 36 34
29 28 29 29 30 30 34 35 32 30 28 29 9 7 8 8 10 8 10 20 22 19 24 22 26 21 23 28 27 21 25 29 33 34 35 30 37 27 31 32 34 29 41 34 28 29 32
29 26 28 30 31 32 33 34 30 29 27 24 14 4 7 14 12 11 16 21 11 18 25 23 23 21 24 30 26 24 26 27 27 24 24 22 37 27 27 31 32 29 35 36 38 38 33
28 26 30 31 30 32 30 32 29 29 26 7 12 11 19 11 10 9 12 11 12 16 20 18 17 18 20 24 21 24 25 17 27 22 28 24 26 25 25 31 28 31 32 37 38 35 32
28 27 28 28 29 31 29 29 27 28 26 14 7 4 13 8 13 18 11 11 15 19 18 16 14 18 19 18 16 21 19 17 22 25 27 28 18 28 30 30 34 32 30 33 36 40 35
28 28 27 27 29 29 27 26 25 26 25 8 11 12 18 12 10 18 17 16 17 15 17 14 9 18 16 16 20 12 26 24 24 27 20 19 16 25 29 28 31 35 36 35 40 41 38
29 29 25 24 28 27 27 25 23 24 20 9 11 12 15 15 14 9 7 13 16 16 15 16 14 19 17 19 19 18 21 16 18 21 23 22 20 20 29 26 31 33 34 30 31 34 34
30 26 23 22 30 27 27 24 23 23 18 11 12 16 13 9 21 19 17 17 18 15 16 17 16 18 23 17 18 12 16 18 16 18 23 26 26 15 31 22 21 31 34 26 32 31 11
28 24 23 24 28 27 28 21 24 22 21 14 10 11 16 17 15 15 18 17 16 15 18 18 18 11 14 21 19 17 15 18 17 18 20 24 25 24 16 14 16 25 31 30 33 32 16
27 22 22 24 28 29 25 20 21 22 17 14 10 15 12 16 13 14 18 17 16 16 15 17 17 17 9 16 15 18 19 16 15 20 21 21 21 25 24 19 17 19 20 23 26 22 11
24 21 19 20 24 27 24 19 20 19 17 14 15 12 9 17 15 18 17 19 16 16 15 16 16 20 16 18 22 23 22 19 20 19 18 21 23 24 25 20 29 18 16 21 26 22 12
22 19 18 21 23 24 22 17 19 18 18 15 16 14 11 15 18 19 20 19 19 17 15 16 15 17 18 22 21 19 21 22 24 20 23 23 25 26 29 30 21 22 22 22 20 17 8
22 18 17 20 19 20 16 17 18 18 18 16 16 16 14 12 18 17 18 13 13 16 17 16 17 16 16 19 18 16 21 21 18 17 24 27 25 27 30 33 35 14 16 20 20 20 12
22 19 19 18 18 12 16 16 17 17 17 16 14 16 15 13 16 14 8 17 14 14 17 16 13 14 15 14 16 17 17 18 15 16 14 18 22 27 29 30 24 19 18 17 26 20 13
18 18 19 17 15 17 16 16 16 15 16 15 15 16 15 13 16 14 15 15 15 11 19 15 14 15 15 16 14 16 19 18 20 21 19 16 18 21 23 25 22 15 19 24 17 12 12
11 13 15 16 16 18 17 17 17 17 17 15 13 17 17 14 17 14 15 15 15 17 15 13 17 15 18 15 14 14 15 16 16 20 17 19 16 17 19 15 12 15 11 10 11 12 13
Wind_Direction
49 42 27 10 4 1 359 352 348 344 339 333 327 320 316 315 312 309 306 301 298 291 281 278 278 280 281 269 260 299 293 265 253 241 236 240 245 247 246 280 279 323 301 27 55 86 83
48 43 34 23 16 14 8 358 350 348 346 341 333 327 318 315 310 306 305 301 296 291 284 275 277 282 271 259 287 298 282 260 247 229 239 236 248 236 255 275 276 298 301 16 26 55 89
44 40 35 31 27 22 17 9 352 343 344 340 333 325 318 312 309 306 304 302 295 290 287 282 278 282 264 244 277 301 269 254 243 211 246 236 241 248 260 268 274 271 295 50 72 85 68
41 37 33 30 28 25 21 15 357 343 337 326 320 312 310 308 308 305 302 300 297 292 286 286 285 277 267 282 260 278 266 253 245 239 224 246 239 244 236 257 272 259 275 268 227 104 57
39 35 31 28 26 24 22 18 3 2 328 308 305 301 294 305 303 300 303 300 297 298 301 305 289 276 267 282 262 262 261 249 240 245 235 243 246 248 239 240 256 254 263 256 275 140 127
36 32 29 27 26 23 21 20 23 32 360 327 302 283 280 288 300 307 296 295 309 310 313 299 276 277 268 266 263 255 252 249 243 246 249 246 252 245 237 241 248 254 253 249 235 249 269
33 29 27 26 25 23 23 21 21 22 339 315 301 291 277 292 297 308 313 332 324 317 289 274 289 269 294 271 257 248 245 244 244 245 243 245 249 244 244 227 225 234 258 250 267 255 184
28 27 25 24 24 22 22 15 7 2 349 314 299 292 131 88 339 316 342 332 321 303 293 278 268 272 271 269 248 247 236 240 238 242 243 249 246 242 240 236 235 234 256 260 255 269 293
24 23 22 22 22 23 17 3 357 354 347 330 305 341 49 58 4 25 54 322 310 299 289 279 269 265 264 264 253 246 237 239 240 242 242 244 252 237 246 241 243 229 240 255 258 258 292
22 20 19 19 20 20 12 351 346 349 336 321 330 10 30 35 22 53 24 346 320 317 303 292 273 269 257 261 257 249 239 238 246 244 244 244 242 245 242 243 243 238 237 269 234 239 252
19 18 15 15 16 13 8 349 345 338 327 314 317 9 26 33 9 23 0 342 324 332 299 317 295 292 261 252 262 245 240 238 245 248 243 244 243 245 244 243 240 240 237 257 247 262 258
17 15 13 12 13 11 7 349 340 324 315 315 311 5 21 41 38 77 30 18 37 326 296 322 321 300 269 251 249 244 238 240 246 250 246 242 245 245 246 246 240 235 242 258 257 255 255
12 12 11 11 6 2 347 336 333 322 309 299 317 21 30 26 29 344 289 27 344 315 314 307 307 304 273 251 246 227 237 238 239 244 244 244 246 243 248 242 242 237 243 245 247 246 252
9 10 9 7 2 360 344 330 323 308 305 289 289 30 47 91 143 91 52 47 328 291 225 266 298 301 272 249 240 231 238 240 239 243 245 243 240 242 246 238 237 239 239 243 245 245 252
7 9 6 4 359 355 336 323 309 303 299 298 251 55 59 139 140 99 131 273 262 228 324 311 275 291 255 241 239 236 242 241 236 240 244 245 243 241 241 235 235 240 238 246 251 253 251
5 9 7 1 356 342 324 325 306 303 299 292 29 148 165 138 76 52 345 320 275 266 285 280 263 249 233 220 237 237 241 235 239 257 253 255 241 241 237 234 241 251 238 242 243 246 250
5 8 2 359 358 333 310 314 309 308 299 259 58 75 70 104 97 13 45 66 95 17 294 281 260 265 250 239 257 236 243 238 237 246 241 255 254 229 238 234 237 240 246 241 243 247 251
7 5 4 6 1 320 310 309 309 312 306 54 142 129 67 107 163 293 23 66 13 352 343 295 280 255 245 279 253 259 238 251 258 243 242 244 252 239 241 242 239 242 247 244 243 244 252
8 4 6 7 360 312 304 305 305 313 319 204 84 86 37 99 128 336 202 13 354 344 355 274 273 261 267 275 245 259 224 244 247 245 252 247 245 239 245 246 237 243 242 245 241 247 251
6 4 8 12 358 306 308 304 303 308 301 132 101 102 74 80 358 55 71 32 344 322 322 218 306 267 265 255 258 266 249 285 266 248 245 248 248 251 260 252 239 235 239 246 248 250 255
5 10 16 17 339 311 315 303 305 304 293 111 109 85 118 109 354 338 316 337 281 326 284 214 277 247 242 266 252 277 263 264 258 262 245 241 244 268 230 274 226 232 235 247 243 249 262
9 15 15 12 323 314 331 298 308 308 299 120 148 134 111 94 115 98 30 332 337 321 281 296 193 251 250 261 268 266 284 274 267 262 253 255 256 257 263 288 279 228 237 247 244 249 276
8 15 14 8 323 329 317 291 307 314 304 286 223 136 157 106 121 112 349 325 338 301 290 286 274 257 321 276 292 280 285 299 282 262 257 260 265 257 259 269 271 251 247 248 250 257 251
9 13 15 10 355 330 321 286 299 307 314 252 278 193 178 110 116 106 104 24 330 328 1 345 234 248 286 268 251 247 256 269 255 264 266 261 260 259 255 262 249 266 272 264 252 255 288
8 13 17 9 360 339 332 272 289 300 302 275 280 246 192 113 112 111 105 108 94 70 338 329 323 243 232 245 252 262 249 254 249 263 253 262 261 261 253 255 264 264 264 260 253 251 265
11 19 25 20 22 12 274 273 282 292 297 271 305 276 217 167 68 102 108 149 138 107 100 3 337 268 226 199 264 288 269 275 272 283 263 252 257 260 257 258 255 299 267 271 267 252 252
20 27 24 31 31 324 275 275 279 282 288 269 253 291 223 214 56 136 65 72 121 134 92 114 100 358 293 332 301 283 293 288 287 290 295 271 265 259 256 261 267 273 279 279 254 266 248
26 30 30 33 63 275 277 278 280 280 284 276 251 289 241 219 37 112 62 73 71 117 352 21 128 108 122 318 323 312 291 295 283 283 291 284 278 270 267 261 268 275 278 267 274 278 272
54 48 44 38 39 278 277 280 290 294 291 281 235 334 261 165 353 57 56 40 29 358 277 37 341 342 313 350 354 354 320 311 303 283 298 286 299 285 290 278 301 308 304 304 295 283 277